Showing default

AEROCUBE 18A, 63220

Orbit data source: Space-Track

AEROCUBE 18A, 63220 is a payload satellite owned by AERO (US) in SSO that was launched on Sat, 15 Mar 2025 UTC via an FALCON 9 launch vehicle from the Air Force Western Test Range (AFWTR). Payload-class satellites include a variety of spacecraft equipped with specific instruments for various scientific and technological missions. These include communications satellites like Starlink; space stations such as the ISS; scientific satellites like the Hubble; Earth observation satellites from companies like Planet Labs, Umbra, and HawkEye 360; GPS; miniature CubeSats for education and research; and military/defense satellites.

Loading next visibility...
Identifier
63220, 2025-052L
Orbit
SSO
Country
Flag of USUS
Related business
Manufacturer
AERO
Mission
Operational Defense Technology
Bus & Motor
CUBESAT 6U, Unknown motor
Mass
10 kg wet, 10 kg dry
Launch date (UTC)
2025-03-15 (1 year ago)
Launch vehicle
FALCON 9
Launch site
Air Force Western Test Range (AFWTR)
Object type
Payload
Rocket body
Debris
Shape & HBR
Box + 2 Pan, 14.5 m
Radar Cross Section
0.045 m², Small (<0.1 m²)

Expand to show TLE details & history
Last TLE update: 10 hours ago

TLE from 10 hours ago
0 AEROCUBE 18A
1 63220U 25052L   26144.98691882  .00005228  00000-0  21780-3 0  9993
2 63220  97.3995  38.7653 0003657 177.6830 182.4425 15.24147605 66364
Epoch: 2026-05-24T23:41Z
TLE epoch observation values (Epoch: 2026-05-24T23:41:09.786Z)
Latitude
0.00001°
Longitude
160.89334°
Altitude
498.954 km
Speed
7.614 km/s
True Right ascension
02h 35m 03s
True Declination
0° 00' 00"
Sunlit
Object was in daylight at epoch
Visualization orbit readout
Latitude
Unknown
Longitude
Unknown
Altitude
Unknown
Speed
Unknown
Apparent Right ascension
Unknown
Apparent Declination
Unknown
Sunlit
N/A
Visualization observer readout
Local Sidereal Time
18:22:34
Azimuth
Unknown
Elevation
Unknown
Doppler factor
Unknown
Orbital elements
Apogee altitude
492.818 km
Perigee altitude
487.794 km
Semi-major axis
6,868.443 km
Eccentricity
0.00037
Inclination
97.3995°
RAAN
38.7653°
Arg. of periapsis
177.683°
True anomaly
182.44071°
Mean anomaly
182.4425°
Eccentric anomaly
182.44161°
Mean motion
3.8129 °/min
Orbital period
94.42 mins
BSTAR
0.0002178
Loading maneuver chart data...
Computing Atmospheric mass density...
Loading historical data...
Loading historical data...
Loading historical data...
Loading historical data...
Loading historical data...
Loading historical data...
Loading historical data...

Documentation

Showing up to 5 results
|